[[{"header":{"parameterUnit":"m.s-1","parameterCategory":1,"la1":30.2991,"la2":30.254,"lo1":-89.0895,"lo2":-89.0444,"dy":0.0017,"dx":0.0017,"nx":28,"ny":28,"refTime":"2024-06-03T21:00:00:Z","depth":0,"parameterNumber":2,"parameterNumberName":"U-component_of_WINDS"},"data":[0,0,0,0,0,0,0,0,0,0,0,0,0,0,0,0,0,0,0,0,0,0,0,0,0,0,0,0,0,0,0,0,0,0,0,0,0,0,0,0,0,0,0,0,0,0,0,0,0,0,0,0,0,0,0,0,0,0,-1.5016,-1.5018,0,-1.5151,-1.5153,-1.5154,-1.5202,-1.5201,-1.5201,-1.52,-1.5343,-1.5347,-1.5351,0,0,0,0,0,0,0,0,0,0,0,0,0,-1.4806,-1.4809,-1.5016,-1.5018,-1.502,-1.5151,-1.5153,-1.5155,-1.5202,-1.5201,-1.5201,-1.52,-1.5341,-1.5346,-1.5351,0,0,0,0,0,0,0,0,0,0,0,0,0,-1.4915,-1.4811,-1.5016,-1.5059,-1.5064,-1.5151,-1.5153,-1.5155,-1.5202,-1.5201,-1.52,-1.52,-1.5339,-1.5346,-1.5352,-1.5407,0,0,-1.5372,-1.5374,0,0,0,0,0,0,0,0,-1.4908,-1.4922,-1.5051,-1.5056,-1.5062,-1.5159,-1.5131,-1.524,-1.5202,-1.515,-1.52,-1.5199,-1.5282,-1.5293,-1.532,-1.5414,-1.542,-1.5372,-1.5376,-1.5379,-1.5381,0,0,0,0,0,0,0,-1.4901,-1.4917,-1.507,-1.5053,-1.506,-1.5073,-1.5088,-1.5152,-1.5219,-1.5154,-1.5158,-1.5173,-1.5285,-1.5314,-1.5324,-1.5422,-1.5372,-1.5378,-1.5382,-1.5384,-1.5569,-1.5571,0,0,0,0,0,0,-1.4885,-1.491,-1.5066,-1.5074,-1.4982,-1.5078,-1.5094,-1.5129,-1.5218,-1.5231,-1.5174,-1.5175,-1.5304,-1.5317,-1.5329,-1.5401,-1.5379,-1.5385,-1.5388,-1.5568,-1.557,-1.5571,0,0,0,0,0,0,-1.4881,-1.4899,-1.506,-1.4993,-1.5015,-1.5082,-1.5121,-1.5132,-1.5161,-1.5233,-1.5246,-1.519,-1.5304,-1.532,-1.5388,-1.5406,-1.5388,-1.5393,-1.5567,-1.5569,-1.557,-1.5543,0,0,0,0,0,0,-1.4874,-1.4897,-1.4917,-1.4993,-1.5018,-1.5114,-1.5122,-1.5135,-1.5171,-1.5174,-1.5252,-1.5264,-1.5304,-1.5378,-1.5394,-1.5415,-1.5398,-1.5566,-1.5568,-1.557,-1.5543,-1.5544,-1.5545,0,0,0,0,0,-1.4867,-1.4904,-1.4917,-1.4936,-1.5044,-1.5115,-1.513,-1.5173,-1.5172,-1.5194,-1.5241,-1.5262,-1.5402,-1.5384,-1.5403,-1.5426,-1.5565,-1.5567,-1.557,-1.5542,-1.5544,-1.5545,0,0,0,0,0,0,-1.4829,-1.4915,-1.4931,-1.4994,-1.5047,-1.5123,-1.5151,-1.5173,-1.5229,-1.5229,-1.5283,-1.53,-1.5364,-1.5402,-1.5381,-1.5485,-1.5485,-1.5491,-1.5458,-1.5459,-1.546,-1.545,-1.5404,0,0,0,0,0,-1.4828,-1.4877,-1.495,-1.4999,-1.5024,-1.5083,-1.5116,-1.5145,-1.5203,-1.5226,-1.5277,-1.5334,-1.5391,-1.5427,-1.5484,-1.5549,-1.5568,-1.5574,-1.5575,-1.5576,-1.558,-1.562,-1.5624,-1.5579,-1.5579,-1.5579,0,0,-1.4827,-1.488,-1.4907,-1.4993,-1.5037,-1.5088,-1.5102,-1.5155,-1.5194,-1.5234,-1.5301,-1.5341,-1.5408,-1.5474,-1.5507,-1.5508,-1.5597,-1.5579,-1.5578,-1.5583,-1.5623,-1.5627,-1.563,-1.5581,-1.558,-1.558,0,0,-1.4851,-1.4895,-1.4941,-1.4985,-1.5052,-1.5091,-1.5102,-1.5176,-1.5204,-1.5271,-1.5303,-1.5351,-1.5448,-1.5495,-1.5531,-1.5575,-1.5597,-1.5592,-1.5596,-1.5634,-1.5638,-1.5641,-1.5658,-1.5663,-1.5596,-1.5596,-1.5596,0,-1.4841,-1.4917,-1.4962,-1.5014,-1.5051,-1.5089,-1.5138,-1.5179,-1.5262,-1.5288,-1.5288,-1.5411,-1.5459,-1.5538,-1.5549,-1.5577,-1.5593,-1.5583,-1.5633,-1.5637,-1.5641,-1.5658,-1.5664,-1.5595,-1.5595,-1.5595,-1.5596,0,-1.4903,-1.4955,-1.4985,-1.5062,-1.5103,-1.5153,-1.5208,-1.5244,-1.5271,-1.531,-1.538,-1.5439,-1.5508,-1.5529,-1.5556,-1.5613,-1.5612,-1.5622,-1.5623,-1.5643,-1.566,-1.5667,-1.5594,-1.5594,-1.5594,-1.5595,0,0,-1.4906,-1.5008,-1.5018,-1.5054,-1.5132,-1.5175,-1.5227,-1.5294,-1.5325,-1.5382,-1.5428,-1.551,-1.552,-1.5562,-1.5594,-1.5627,-1.566,-1.5634,-1.5636,-1.5637,-1.5728,-1.572,-1.5727,-1.5675,-1.5676,-1.5677,-1.5723,0,-1.494,-1.5034,-1.5076,-1.5152,-1.5202,-1.524,-1.5287,-1.534,-1.5379,-1.543,-1.5474,-1.5531,-1.554,-1.5565,-1.56,-1.5648,-1.5679,-1.5646,-1.5721,-1.5723,-1.5703,-1.5735,-1.5727,-1.5767,-1.5729,-1.5731,-1.5731,0,-1.4992,-1.5047,-1.5127,-1.52,-1.5223,-1.5263,-1.5329,-1.5376,-1.5439,-1.5465,-1.5512,-1.5543,-1.5603,-1.5599,-1.5683,-1.5659,-1.5693,-1.5722,-1.5725,-1.5734,-1.5728,-1.5746,-1.578,-1.5787,-1.5742,-1.5741,-1.574,0,-1.4988,-1.5082,-1.5142,-1.5172,-1.5258,-1.5286,-1.5324,-1.5386,-1.5424,-1.5482,-1.5508,-1.5573,-1.5608,-1.5659,-1.5708,-1.5701,-1.5788,-1.5788,-1.5813,-1.5812,-1.5829,-1.5828,-1.587,-1.585,-1.585,-1.585,-1.585,0,-1.5022,-1.507,-1.5142,-1.5179,-1.5234,-1.5284,-1.5338,-1.5379,-1.5434,-1.5482,-1.5519,-1.5563,-1.5625,-1.5678,-1.5717,-1.5781,-1.5797,-1.5822,-1.5832,-1.5819,-1.5815,-1.5841,-1.584,-1.5851,-1.5851,-1.5851,-1.585,0,-1.5026,-1.5076,-1.5144,-1.522,-1.5241,-1.5278,-1.5344,-1.5383,-1.5424,-1.5484,-1.5501,-1.5567,-1.5631,-1.5685,-1.577,-1.5796,-1.5864,-1.5875,-1.5842,-1.5847,-1.5869,-1.5867,-1.5931,-1.5942,-1.5913,-1.5913,-1.5913,0,-1.5045,-1.5082,-1.5162,-1.5196,-1.5232,-1.5286,-1.5325,-1.5376,-1.5416,-1.5491,-1.5521,-1.5588,-1.5644,-1.5745,-1.5802,-1.5867,-1.5881,-1.5899,-1.5891,-1.5878,-1.5883,-1.588,-1.5885,-1.59,-1.59,-1.59,-1.59,0,-1.5073,-1.5096,-1.515,-1.5212,-1.5257,-1.531,-1.5363,-1.5389,-1.5451,-1.5494,-1.5559,-1.5603,-1.5689,-1.5756,-1.5828,-1.5869,-1.5896,-1.5902,-1.5911,-1.5899,-1.5878,-1.5891,-1.5844,-1.59,-1.59,-1.59,-1.59,-1.59,-1.5086,-1.5122,-1.5183,-1.5242,-1.5288,-1.5337,-1.5378,-1.5424,-1.5479,-1.5552,-1.558,-1.5647,-1.5711,-1.581,-1.5852,-1.5907,-1.5911,-1.5924,-1.5928,-1.593,-1.5929,-1.5869,-1.592,-1.592,-1.5921,-1.5921,-1.5921,0,-1.5118,-1.5159,-1.5213,-1.5286,-1.5333,-1.5352,-1.5413,-1.5452,-1.551,-1.5566,-1.5621,-1.5697,-1.5762,-1.5824,-1.5893,-1.5925,-1.5939,-1.5941,-1.594,-1.5949,-1.5921,-1.5906,-1.5929,-1.5929,-1.5929,-1.5929,-1.5929,-1.5929,-1.5139,-1.5201,-1.5231,-1.5317,-1.5359,-1.5423,-1.5457,-1.5504,-1.5549,-1.5632,-1.5685,-1.5725,-1.5785,-1.5858,-1.592,-1.5937,-1.5961,-1.596,-1.598,-1.5953,-1.5951,-1.595,-1.5936,-1.5964,-1.5964,-1.6004,-1.6004,-1.6005]},{"header":{"parameterUnit":"m.s-1","parameterCategory":1,"la1":30.2991,"la2":30.254,"lo1":-89.0895,"lo2":-89.0444,"dy":0.0017,"dx":0.0017,"nx":28,"ny":28,"refTime":"2024-06-03T21:00:00:Z","depth":0,"parameterNumber":3,"parameterNumberName":"V-component_of_WINDS"},"data":[0,0,0,0,0,0,0,0,0,0,0,0,0,0,0,0,0,0,0,0,0,0,0,0,0,0,0,0,0,0,0,0,0,0,0,0,0,0,0,0,0,0,0,0,0,0,0,0,0,0,0,0,0,0,0,0,0,0,5.3559,5.3561,0,5.3671,5.3672,5.3673,5.3662,5.366,5.3658,5.3657,5.3773,5.3777,5.3782,0,0,0,0,0,0,0,0,0,0,0,0,0,5.3338,5.3342,5.3559,5.3561,5.3562,5.3671,5.3672,5.3674,5.3662,5.366,5.3658,5.3656,5.3771,5.3777,5.3782,0,0,0,0,0,0,0,0,0,0,0,0,0,5.344,5.3343,5.3559,5.3569,5.3571,5.367,5.3672,5.3674,5.3663,5.366,5.3657,5.3655,5.3769,5.3776,5.3783,5.388,0,0,5.3805,5.3808,0,0,0,0,0,0,0,0,5.3435,5.3448,5.3566,5.3569,5.3571,5.365,5.3637,5.3743,5.3663,5.3628,5.3657,5.3654,5.3734,5.3744,5.3771,5.3885,5.389,5.3805,5.381,5.3813,5.3815,0,0,0,0,0,0,0,5.3427,5.3444,5.3604,5.3568,5.3571,5.3569,5.3581,5.3657,5.3695,5.3631,5.363,5.3644,5.3735,5.3764,5.3773,5.3892,5.3805,5.3811,5.3816,5.3819,5.4092,5.4095,0,0,0,0,0,0,5.3418,5.3438,5.36,5.3607,5.3495,5.3575,5.3588,5.3627,5.3694,5.3701,5.3646,5.3643,5.3753,5.3765,5.3777,5.3895,5.3813,5.3819,5.3823,5.4089,5.4092,5.4096,0,0,0,0,0,0,5.3413,5.3432,5.3596,5.3522,5.3543,5.3582,5.3626,5.3631,5.366,5.3705,5.3712,5.3668,5.3751,5.3767,5.3854,5.3899,5.3823,5.3829,5.4085,5.409,5.4094,5.4131,0,0,0,0,0,0,5.3407,5.3431,5.3467,5.3523,5.3547,5.367,5.3629,5.3635,5.3672,5.3669,5.3728,5.3735,5.375,5.3844,5.3861,5.3907,5.3835,5.4081,5.4087,5.4093,5.4126,5.4137,5.4145,0,0,0,0,0,5.3399,5.3474,5.3469,5.3489,5.3593,5.3673,5.3687,5.3702,5.3675,5.3713,5.3742,5.3733,5.3891,5.3853,5.3872,5.3921,5.4079,5.4086,5.4092,5.4122,5.4135,5.4145,0,0,0,0,0,0,5.3423,5.3481,5.3477,5.3572,5.3618,5.3671,5.3719,5.3715,5.3769,5.3765,5.3782,5.3796,5.3883,5.3911,5.3867,5.4018,5.3981,5.3992,5.3997,5.401,5.4019,5.4011,5.384,0,0,0,0,0,5.3439,5.3498,5.3546,5.3626,5.3649,5.368,5.3715,5.3723,5.3771,5.379,5.3826,5.3873,5.3934,5.3973,5.4031,5.413,5.4143,5.4173,5.4183,5.419,5.42,5.4255,5.4269,5.4118,5.4118,5.4118,0,0,5.3474,5.3513,5.355,5.3632,5.3668,5.3729,5.3696,5.3762,5.3808,5.3801,5.3885,5.3913,5.3967,5.406,5.4103,5.4086,5.4245,5.4199,5.4205,5.421,5.4263,5.4278,5.429,5.4122,5.4121,5.4121,0,0,5.3569,5.3604,5.3674,5.3711,5.3765,5.3786,5.3802,5.3856,5.3874,5.3959,5.3954,5.4009,5.4113,5.4152,5.4185,5.4294,5.4288,5.4312,5.4362,5.4416,5.4428,5.4438,5.4478,5.4492,5.4321,5.4322,5.4322,0,5.3605,5.3697,5.3711,5.3778,5.3814,5.3809,5.3881,5.3916,5.3987,5.4013,5.3992,5.4122,5.4158,5.4261,5.4287,5.4314,5.4335,5.4306,5.4425,5.4436,5.4446,5.4484,5.4498,5.4324,5.4324,5.4324,5.4323,0,5.3739,5.3803,5.3853,5.3921,5.3963,5.4032,5.4057,5.4098,5.4102,5.4125,5.4211,5.4254,5.4321,5.4346,5.4351,5.445,5.4437,5.442,5.4384,5.4463,5.4498,5.4513,5.4328,5.4327,5.4326,5.4326,0,0,5.3853,5.3927,5.3946,5.3977,5.4036,5.4086,5.4155,5.422,5.4255,5.4304,5.4363,5.445,5.4435,5.4473,5.4482,5.4529,5.4613,5.4506,5.4508,5.4525,5.4725,5.4738,5.4754,5.4609,5.4612,5.4614,5.4721,0,5.3954,5.4075,5.409,5.4198,5.4257,5.4253,5.4313,5.4356,5.4379,5.4433,5.4458,5.452,5.4495,5.4518,5.4564,5.4593,5.4654,5.4585,5.4665,5.4668,5.4652,5.4773,5.4787,5.4886,5.4735,5.4737,5.4739,0,5.4089,5.4141,5.4255,5.4306,5.4331,5.4385,5.4445,5.4497,5.4546,5.4559,5.4601,5.4605,5.4676,5.4636,5.4736,5.4689,5.4722,5.4741,5.4746,5.4754,5.4709,5.4786,5.4917,5.4932,5.4761,5.4759,5.4758,0,5.4162,5.426,5.4341,5.4367,5.4429,5.4467,5.4495,5.4541,5.4579,5.4632,5.4657,5.4718,5.4751,5.4798,5.4818,5.4787,5.4917,5.4878,5.4931,5.4931,5.4959,5.4958,5.5099,5.498,5.4979,5.4979,5.4979,0,5.4274,5.4344,5.4374,5.4424,5.4502,5.4518,5.4595,5.4622,5.4663,5.4718,5.4718,5.4771,5.4793,5.4849,5.4865,5.4946,5.4961,5.4974,5.4978,5.4975,5.4973,5.4997,5.4991,5.4983,5.4982,5.4981,5.4981,0,5.4369,5.4392,5.448,5.4531,5.4545,5.4601,5.4644,5.4693,5.4714,5.4785,5.4802,5.4836,5.4902,5.4926,5.5007,5.5018,5.5111,5.5109,5.5094,5.5095,5.5147,5.5142,5.531,5.5333,5.5197,5.5199,5.52,0,5.4439,5.4493,5.4549,5.4585,5.4614,5.4673,5.4711,5.4729,5.4769,5.4829,5.487,5.4935,5.4989,5.5094,5.5127,5.5189,5.5188,5.5243,5.5198,5.5193,5.519,5.5187,5.5193,5.5251,5.5253,5.5254,5.5255,0,5.4562,5.4571,5.4625,5.4684,5.473,5.4777,5.4823,5.4853,5.4878,5.4923,5.4989,5.503,5.5112,5.5177,5.524,5.527,5.5267,5.5268,5.5284,5.5282,5.5272,5.5279,5.5118,5.5265,5.5264,5.5263,5.5262,5.5262,5.4648,5.4695,5.4742,5.4803,5.4839,5.4882,5.493,5.4957,5.5012,5.5079,5.5086,5.5158,5.5206,5.5291,5.5323,5.538,5.5365,5.5388,5.5394,5.5399,5.5403,5.5262,5.5391,5.5391,5.5391,5.5391,5.5391,0,5.4772,5.4801,5.4857,5.492,5.4968,5.496,5.501,5.5051,5.5114,5.5159,5.5211,5.5287,5.535,5.5388,5.5451,5.549,5.549,5.5506,5.5504,5.5511,5.5412,5.5393,5.5505,5.5504,5.5504,5.5504,5.5504,5.5504,5.4842,5.4921,5.4935,5.5033,5.5062,5.5131,5.5161,5.5201,5.5236,5.5322,5.5373,5.5397,5.5439,5.5505,5.5563,5.5572,5.5596,5.5613,5.5622,5.5529,5.5518,5.5506,5.5488,5.5618,5.5618,5.5715,5.5716,5.5717]}]]